sat.trackr.live / text

‹ back to catalog

STARLINK-11186 [DTC]

NORAD 60070 · 2024-113M

PAYLOAD ACTIVE UNKNOWN

§ Identity

Operator
Country
US
Launch date
2024-06-19
Launch site
AFWTR
Launch vehicle
Mass (kg)
RCS (m²)

Purposes: comms

External: N2YO · Heavens-Above · Gunter

§ Orbital elements

Epoch: 2026-05-25T01:34:55.053408Z

Period
91.74 min
Inclination
53.1594°
Eccentricity
0.0000998
Mean motion
15.69713778 rev/d
Perigee alt
359.0 km
Apogee alt
360.4 km
Semi-major
6,737.9 km
B*
3.0848e-5
RAAN
174.9460°
Arg perigee
86.4199°
Mean anomaly
273.6933°
Rev number
11,196

§ Raw data

STARLINK-11186 [DTC]1 60070U 24113M   26145.06591497  .00003151  00000+0  30848-4 0  99992 60070  53.1594 174.9460 0000998  86.4199 273.6933 15.69713778111961

JSON: /api/v1/satellites/60070 · /tle

For live sub-satellite position, see the globe view (requires WebGL).

§ Visibility from observer

Set your observer location to see the next 7 days of passes ≥ 10°. The values pass through the URL so the page stays shareable.

No JS? Fill the form by hand. The geolocation button needs JavaScript.